Theta_e
318 318 318 318 317 317 317 316 316 316 315 314 313 312 312 312 314 325 327 332 334 331 332 345 354 347 346 349 346 344 350 352 351 353 354 352 350 348 347 349 349 352 353 351 350
317 318 318 318 318 318 318 317 317 316 316 315 314 312 312 312 322 326 333 329 328 329 337 342 340 344 345 344 344 346 351 351 350 351 351 351 351 350 350 350 352 352 351 350 350
317 317 318 318 319 319 319 318 317 317 316 316 314 312 312 312 333 333 331 327 326 325 332 337 339 339 344 344 343 345 349 350 351 349 350 351 351 350 352 351 350 355 352 350 351
317 318 318 318 319 319 319 318 317 316 316 317 315 312 312 322 335 329 328 328 327 327 332 338 340 341 344 344 344 346 348 350 350 349 349 345 344 350 350 351 349 351 350 349 349
318 318 318 318 319 319 319 319 317 316 316 317 315 312 320 332 328 327 327 328 329 332 332 339 340 344 345 343 344 347 347 349 349 349 348 346 347 347 349 350 349 350 350 350 349
317 318 318 318 319 319 319 319 317 317 318 317 314 312 331 329 326 328 328 335 334 333 335 339 341 342 343 345 346 344 348 350 350 350 351 352 351 348 350 350 350 350 350 349 349
316 317 318 318 318 319 319 319 317 318 318 316 313 318 326 326 323 327 329 329 335 336 338 338 339 342 343 342 344 344 350 349 350 351 347 347 353 351 349 350 350 351 350 349 349
315 316 317 318 318 319 319 318 317 318 316 314 313 321 328 324 324 323 327 330 332 336 337 338 339 341 342 342 342 344 351 361 349 354 347 342 352 352 349 351 352 352 351 350 350
313 314 316 317 318 319 320 317 318 318 315 314 321 327 326 321 322 322 325 330 331 332 334 337 338 340 341 341 342 348 353 352 352 348 353 354 360 353 351 351 352 353 352 351 350
310 311 315 317 317 318 318 319 321 317 325 324 325 326 326 324 324 324 326 329 332 334 335 337 339 340 342 343 347 352 355 352 352 347 345 353 358 355 353 352 352 352 352 352 351
307 308 312 315 317 318 319 325 329 330 325 327 328 323 324 325 324 324 325 328 331 333 337 337 339 340 341 341 344 346 351 352 346 340 340 343 349 357 353 352 353 351 351 351 351
306 307 310 314 317 318 320 329 325 324 326 326 327 327 325 324 324 325 325 325 330 332 335 337 339 339 340 341 344 342 342 342 344 340 339 348 349 348 353 353 352 352 351 351 351
306 307 308 313 318 322 325 324 323 324 325 325 325 325 326 325 325 326 325 326 329 331 333 337 338 338 339 340 342 341 340 343 346 343 340 342 345 345 353 355 353 352 350 350 351
306 307 308 311 320 324 326 324 324 324 326 326 326 325 325 325 324 326 326 326 328 330 332 335 337 338 338 339 341 340 339 341 342 341 340 343 345 347 347 351 355 353 352 349 351
306 308 309 310 316 326 326 323 324 324 331 326 326 324 325 324 325 324 326 326 327 329 331 334 335 337 338 339 339 340 339 341 341 341 340 339 346 358 348 357 346 351 353 351 353
307 310 311 320 320 324 324 323 325 327 326 326 326 325 324 324 324 326 325 327 326 327 328 329 332 334 336 337 338 338 338 339 340 339 339 344 344 356 357 355 343 345 348 352 351
310 313 312 314 326 324 323 325 328 327 325 326 326 325 324 324 323 324 324 324 324 324 326 328 328 330 333 334 337 337 337 340 342 340 341 345 346 349 350 349 345 347 353 352 352
314 314 315 316 322 324 324 327 330 327 325 327 327 326 325 325 324 323 324 324 325 325 326 326 328 328 331 333 334 334 335 339 345 339 344 350 347 348 350 348 347 346 351 352 357
315 322 321 326 322 324 326 327 328 327 326 325 326 326 325 326 326 324 324 325 325 325 325 325 327 330 329 331 331 332 335 335 335 333 334 340 345 345 344 347 347 346 351 353 358
315 324 326 326 325 324 325 326 327 327 324 324 325 326 326 327 326 325 325 325 325 326 326 326 326 329 330 330 331 330 331 331 333 337 337 334 347 352 360 360 356 350 351 354 359
320 329 327 325 325 328 329 326 325 326 325 324 323 325 328 329 327 325 325 326 326 326 327 326 326 327 329 329 329 330 329 329 330 332 336 337 349 351 359 352 354 348 357 358 358
327 331 326 325 328 329 330 329 323 325 325 324 323 324 327 328 328 328 327 326 327 327 326 327 326 326 327 330 331 330 330 329 332 331 332 336 342 349 350 345 348 345 359 358 360
330 329 325 326 331 331 329 328 328 326 325 324 325 324 325 326 328 328 330 327 326 325 325 327 326 326 326 328 330 329 329 329 329 330 335 335 348 346 345 344 344 350 360 364 361
330 334 329 327 328 329 329 327 327 326 324 324 326 327 325 325 327 328 332 329 329 327 339 326 324 325 325 328 329 329 329 329 328 331 329 330 345 348 348 349 352 349 362 362 361
331 332 330 334 332 331 329 329 327 327 326 328 326 327 329 328 326 328 328 330 330 331 326 325 324 326 326 326 327 328 329 329 329 330 332 332 337 349 346 347 360 361 362 362 362
321 325 325 327 330 331 327 329 329 329 330 332 333 328 329 327 327 328 334 337 332 330 329 327 326 325 326 326 326 326 328 328 329 329 329 329 330 333 351 361 363 363 362 362 361
316 317 322 325 329 331 333 334 334 334 331 330 332 334 336 328 330 332 334 336 338 336 335 329 327 326 327 327 327 326 327 327 328 329 329 328 331 333 347 361 364 366 365 363 360
Wind_Speed
23 22 21 20 19 19 20 21 20 20 20 19 18 17 17 20 16 10 9 3 4 6 9 15 18 20 17 16 4 8 12 13 17 12 6 11 13 12 10 7 8 17 25 24 28
24 23 23 21 20 21 21 20 21 21 20 20 17 17 18 21 14 16 14 10 9 7 10 20 15 15 11 9 7 14 11 16 15 14 13 12 11 10 11 9 15 18 26 32 29
24 25 23 23 21 21 21 21 22 21 20 19 17 17 17 18 8 11 14 11 12 12 17 16 22 21 20 9 12 14 14 15 12 10 13 11 9 12 9 12 14 20 20 20 33
25 26 25 23 23 22 22 22 23 21 19 19 17 17 18 4 6 5 12 11 12 11 16 20 20 21 13 5 7 9 15 12 10 11 9 11 10 11 13 12 18 20 20 17 15
26 26 25 24 23 23 23 23 24 20 19 17 16 16 7 8 13 4 6 9 11 10 16 17 21 7 14 12 5 16 12 12 9 9 12 14 12 10 11 12 18 20 19 17 16
27 26 26 25 24 24 24 25 23 19 17 15 13 14 6 14 5 6 5 8 12 14 16 18 17 9 12 17 15 4 12 14 12 10 13 10 2 9 10 15 18 19 18 16 12
27 27 25 25 25 25 24 25 20 18 15 12 10 8 11 15 3 7 8 12 14 15 15 19 10 15 17 4 2 7 28 28 9 12 9 15 8 10 13 16 18 18 16 15 15
27 26 25 25 25 26 26 22 19 16 10 9 9 6 8 4 10 11 12 14 14 14 16 17 10 15 15 2 6 13 23 10 24 22 12 19 8 14 16 17 17 17 14 13 15
26 26 25 25 25 26 27 21 20 13 8 8 7 9 13 3 11 18 17 17 18 18 17 16 10 16 20 11 12 17 12 11 13 12 19 12 6 17 17 16 16 15 14 13 11
27 26 25 25 25 26 23 20 17 8 7 8 14 9 13 13 10 16 16 12 13 15 16 15 13 14 17 14 7 13 7 22 25 13 10 12 15 19 19 17 15 15 15 13 13
26 26 25 24 23 21 24 8 4 6 12 14 2 15 1 3 3 7 13 12 14 15 18 18 15 16 22 18 13 21 29 32 19 6 8 13 2 15 15 17 17 15 15 15 16
27 26 25 24 22 13 16 8 8 8 10 16 20 18 16 3 8 15 18 17 17 19 20 18 20 21 22 8 15 7 14 11 8 4 6 14 16 29 27 17 16 15 17 15 16
26 25 25 22 18 11 10 6 8 12 7 16 21 19 18 14 14 15 19 19 19 20 21 21 22 20 19 20 8 11 15 6 10 17 8 8 5 11 13 14 13 14 16 17 15
25 24 23 26 8 11 8 4 8 8 6 13 14 12 17 18 14 20 22 18 20 20 23 21 22 23 15 21 10 12 12 9 16 10 13 10 11 7 6 3 3 13 14 17 16
24 23 20 15 15 8 10 10 11 9 6 13 13 6 10 15 7 21 22 17 22 21 15 22 24 22 21 21 16 16 19 5 10 14 17 22 4 4 15 6 17 17 16 16 17
24 22 19 1 8 12 13 12 11 6 10 9 10 10 14 19 21 10 20 17 18 22 20 20 21 23 21 21 14 13 18 17 13 11 13 8 11 4 6 9 17 31 29 18 20
23 20 15 11 3 10 12 9 6 9 4 9 11 13 15 17 19 17 21 20 18 18 20 20 22 23 16 24 16 18 17 12 12 12 7 6 3 7 9 23 27 31 22 17 20
22 14 9 14 8 10 11 8 8 12 20 5 6 3 14 18 18 22 16 19 23 23 14 19 18 22 12 16 16 21 20 14 16 14 4 4 5 5 13 31 29 11 18 18 24
17 4 7 5 8 7 7 9 12 16 14 6 10 11 14 14 15 20 21 20 21 25 23 19 22 17 25 19 21 21 18 21 18 19 16 12 3 14 11 16 5 8 17 17 24
11 12 5 4 6 8 7 15 19 16 8 10 11 19 14 16 12 15 19 19 22 24 25 24 20 21 21 20 20 19 20 16 12 17 18 15 11 6 20 10 6 4 13 14 19
4 5 6 4 7 6 9 13 16 13 2 8 15 20 13 17 16 15 19 17 19 22 23 22 22 20 16 17 15 14 17 18 17 11 12 14 4 19 25 20 11 3 10 13 17
8 2 6 7 7 8 10 16 14 15 2 6 15 14 16 16 11 12 18 13 13 13 18 18 14 17 21 14 18 16 18 19 13 14 15 15 2 17 23 9 1 3 11 15 15
5 2 5 9 6 8 14 13 10 11 10 15 10 13 16 13 9 13 19 7 11 8 9 8 14 16 22 19 13 13 15 20 20 16 17 15 2 13 19 16 9 11 16 14 16
5 3 5 6 10 14 13 13 7 12 11 17 14 12 14 13 13 15 16 4 6 6 10 8 16 16 16 16 15 21 18 21 20 14 15 17 9 13 26 27 27 18 17 17 16
4 6 13 6 8 9 9 11 14 6 11 9 15 16 16 15 14 16 17 17 8 6 7 12 18 17 18 20 21 19 18 19 19 22 18 18 6 16 18 19 25 20 17 18 18
6 5 10 12 14 10 8 10 15 9 9 10 14 15 16 16 17 13 14 16 15 12 11 13 15 15 18 19 19 20 17 15 21 20 20 23 21 17 17 21 19 22 22 20 19
14 11 7 10 14 6 9 10 11 17 12 5 10 15 18 3 14 16 15 17 22 8 10 15 13 13 16 16 19 20 19 17 15 16 16 18 19 15 6 19 22 21 19 20 21
Wind_Direction
10 8 7 4 0 355 353 349 346 344 340 341 340 334 332 327 308 283 253 257 206 249 263 263 239 256 240 257 322 303 76 58 67 86 118 126 88 80 120 115 60 128 138 142 140
5 3 2 359 355 353 349 343 340 338 335 336 337 333 331 331 309 265 244 251 248 256 247 262 308 233 257 324 196 90 69 58 67 76 76 78 117 147 125 110 109 114 125 151 151
2 360 356 354 350 347 344 340 336 334 331 332 334 330 329 330 272 242 205 227 245 253 253 286 286 278 276 191 77 87 101 95 64 78 96 123 146 141 166 131 122 125 135 152 159
356 355 351 348 346 342 339 337 333 330 328 329 329 325 325 305 234 102 181 208 238 248 261 273 271 260 234 178 100 100 88 90 89 90 100 90 73 63 57 101 122 136 144 156 164
350 348 347 344 341 338 336 333 329 327 324 325 324 325 341 233 257 163 198 222 235 230 250 274 293 353 290 85 127 121 120 106 109 106 79 68 80 98 101 112 127 137 157 161 175
346 345 343 341 338 335 332 331 327 325 320 320 317 325 260 253 85 165 185 214 221 217 254 262 306 332 302 122 168 139 147 144 145 116 107 90 104 108 122 128 135 150 163 172 175
342 341 340 337 335 332 328 327 321 322 316 314 309 328 269 251 259 211 216 230 228 234 251 266 301 307 297 226 159 166 49 11 151 146 83 61 342 132 145 144 150 164 172 165 176
340 339 337 335 333 330 324 320 314 312 305 297 294 296 258 240 233 235 232 237 243 245 252 290 312 290 284 354 160 252 101 177 274 117 139 125 229 150 158 161 164 170 174 167 175
337 335 334 333 332 328 320 315 304 295 281 276 287 226 259 185 234 231 227 231 228 235 247 256 277 270 276 248 222 5 19 284 246 146 161 175 248 159 172 173 170 174 176 178 180
336 334 332 331 330 327 316 310 296 276 275 251 265 269 242 235 219 217 215 242 255 224 232 232 244 255 256 240 134 186 57 291 269 166 197 183 157 163 179 177 174 180 172 184 180
338 334 330 330 328 324 320 327 226 193 226 242 231 237 80 193 69 215 233 215 241 247 228 224 236 238 251 265 142 189 178 207 233 147 228 273 264 120 186 190 176 182 171 185 184
337 334 329 327 324 307 303 276 34 334 294 265 253 251 265 251 265 215 211 219 216 235 222 231 225 243 254 220 269 279 267 246 24 142 232 106 198 106 248 201 185 182 171 187 185
336 332 329 324 318 286 277 355 319 321 267 272 226 230 227 228 246 243 202 212 222 225 236 227 236 224 261 273 224 257 271 117 161 264 276 290 189 179 169 193 191 191 186 186 185
337 332 330 327 303 328 281 346 320 322 276 245 189 220 218 214 242 243 199 220 229 232 229 240 239 258 216 261 268 241 275 321 315 289 285 212 286 166 296 169 291 207 200 190 184
336 331 324 328 303 293 356 321 319 274 278 131 159 108 184 200 264 203 236 206 232 229 226 235 242 245 256 236 225 261 283 196 281 294 286 284 193 255 271 357 334 279 221 203 169
333 327 320 23 253 266 306 310 284 235 246 163 140 197 216 206 242 198 210 211 229 241 249 246 250 241 249 258 259 260 268 276 279 272 271 4 15 131 172 210 194 251 265 194 163
326 315 293 277 252 328 311 279 230 241 155 167 191 192 206 209 220 223 196 210 218 225 238 243 245 257 237 243 226 246 251 261 248 252 261 75 98 165 110 279 231 219 216 182 156
324 297 278 245 267 294 291 247 253 236 250 58 356 214 218 225 198 225 198 223 217 228 226 231 228 240 222 255 253 228 249 254 254 260 178 313 239 165 104 262 213 170 158 167 139
329 286 219 258 220 252 255 232 229 264 347 13 281 233 253 237 252 209 202 226 226 220 238 240 235 230 223 218 234 253 250 244 274 280 278 243 185 136 166 358 238 152 148 159 145
323 280 208 170 201 228 242 258 276 323 357 331 288 286 249 208 223 232 215 221 228 224 227 247 259 244 216 211 215 236 258 252 231 254 272 273 206 118 81 283 3 295 151 149 141
252 226 105 172 195 228 243 252 263 264 189 282 288 304 285 295 200 217 246 226 220 232 224 232 254 264 272 198 214 220 241 259 278 280 276 263 139 151 153 178 172 267 157 155 145
295 277 138 176 221 227 245 249 273 292 59 263 278 294 306 321 316 294 267 220 228 242 237 219 249 252 259 237 206 231 254 235 248 259 267 281 219 171 163 133 231 97 167 157 150
284 22 150 209 254 262 234 242 293 313 275 265 260 262 275 290 294 283 284 46 32 216 256 227 236 250 254 236 201 242 230 259 246 242 257 275 129 173 125 110 318 247 175 155 149
277 257 149 197 266 286 299 316 260 233 254 287 302 285 283 262 268 276 283 271 128 267 360 303 276 239 245 245 245 209 224 242 251 255 244 251 167 152 166 166 197 212 172 162 155
265 356 13 287 326 301 291 316 298 272 210 226 249 258 272 277 259 261 249 282 185 180 248 258 256 265 264 258 269 273 231 212 240 267 278 284 272 199 184 184 166 152 160 164 157
345 348 340 301 287 268 260 262 271 289 291 306 313 267 261 236 265 278 334 315 285 193 211 240 249 264 273 266 267 271 269 261 221 225 255 272 276 298 117 137 154 159 166 170 156
4 337 301 292 286 302 317 312 296 317 301 284 302 264 300 290 341 339 311 300 296 293 263 218 230 236 252 255 252 261 257 261 260 269 236 239 258 270 177 160 160 159 165 170 163